Theta_e
308 307 306 306 306 306 306 306 306 307 307 306 307 307 307 307 307 307 306 306 307 306 307 307 307 308 307 307 307 307 306 304 304 304 303 302 303 303 304 304 305 306 307 308 308 310 310 309 309 307 309 310 306 309 308 305 312 321 319 315 310 307 306 307 306 306 303 300 301 300 299 303 301 295 294 294 293 293 293 291 290 288 287 287 287 289 289 288
308 307 307 307 306 306 306 306 306 307 307 307 307 307 307 308 307 307 306 306 307 306 307 307 307 307 307 307 307 307 307 306 304 303 302 303 303 303 304 304 305 307 307 308 309 309 310 310 308 307 312 312 307 309 309 305 310 318 317 313 310 308 304 304 306 304 302 301 303 301 298 301 302 296 294 298 295 293 296 293 290 289 287 286 286 287 287 287
308 307 307 307 307 307 306 306 306 307 307 307 307 307 307 307 307 307 306 306 306 306 307 307 307 307 307 307 307 307 307 307 304 303 303 303 303 304 305 305 305 306 308 308 310 309 310 310 307 308 314 312 308 309 309 308 307 310 313 313 308 307 303 300 303 303 302 303 305 302 298 299 299 296 295 299 296 294 299 295 292 291 288 287 286 286 287 287
308 308 307 307 307 307 307 306 306 307 308 307 307 307 307 307 307 307 306 306 306 307 307 307 307 307 307 306 307 307 307 307 303 302 304 303 303 304 305 306 306 307 308 308 309 309 310 309 306 313 317 312 314 314 308 308 307 306 312 313 304 304 303 300 301 301 300 302 305 301 300 300 297 296 296 296 297 297 298 295 295 295 289 287 286 285 286 287
308 308 307 307 307 306 306 306 306 306 307 307 307 307 307 307 306 306 306 306 306 306 307 307 306 306 307 307 307 306 308 309 304 302 304 303 303 305 306 306 307 307 308 308 308 309 310 307 308 318 319 313 319 319 308 305 306 306 306 306 303 302 301 300 300 299 298 301 303 300 300 299 296 296 296 296 302 303 298 294 295 293 288 287 286 285 285 286
308 308 307 307 306 306 306 306 306 306 307 306 306 307 306 306 305 305 306 307 306 307 306 306 306 306 306 307 307 307 308 307 303 303 303 303 304 305 306 306 307 307 307 309 308 308 309 309 312 319 320 313 312 312 307 304 305 306 302 300 302 302 300 300 299 298 301 305 305 302 299 298 296 297 295 295 301 302 295 292 291 289 286 286 286 285 285 285
309 308 307 307 306 306 306 306 306 306 307 306 306 306 305 304 304 305 306 307 307 307 306 307 309 309 307 306 306 306 308 305 302 304 304 303 304 305 306 306 307 307 308 308 306 309 310 311 311 316 321 313 307 307 305 304 306 309 305 300 300 300 300 300 299 300 304 307 303 299 297 297 299 298 294 294 296 294 290 288 288 288 286 286 285 284 285 285
308 308 307 307 306 306 306 306 306 306 306 306 306 305 305 304 304 305 306 307 307 307 306 307 309 308 308 307 306 308 306 303 302 304 303 304 304 304 305 306 306 307 307 306 305 307 309 311 310 313 317 309 307 307 305 306 308 307 304 300 299 299 299 298 300 303 304 302 297 298 298 298 298 295 294 294 294 290 288 287 286 286 285 285 285 284 285 285
308 308 307 307 307 306 306 306 306 306 306 306 306 305 305 304 304 305 305 306 306 306 306 307 307 307 308 305 308 310 305 302 303 304 303 304 304 304 306 305 305 306 306 305 305 306 307 310 309 310 310 308 309 307 307 309 307 306 304 301 299 298 297 297 300 302 301 298 296 300 300 295 294 293 295 295 292 289 287 287 286 285 286 287 285 284 285 285
308 308 307 307 306 307 306 307 306 306 306 306 306 306 306 305 305 305 305 305 305 306 306 306 306 308 307 305 309 309 303 303 303 303 304 303 304 305 306 305 305 305 304 304 304 304 307 308 304 304 308 309 308 306 307 309 305 306 306 302 301 300 297 297 300 299 298 296 296 301 300 295 292 294 299 295 290 289 288 288 287 286 288 288 286 284 284 285
308 307 308 307 307 307 306 307 306 306 306 306 306 306 306 305 305 305 305 305 305 305 305 306 306 306 304 304 309 306 302 303 303 303 304 303 304 304 304 304 304 305 304 303 303 303 305 305 302 304 308 306 307 308 305 306 304 303 304 302 303 305 299 297 300 297 297 296 295 299 298 293 292 296 301 294 290 289 288 289 287 287 288 288 286 284 284 285
307 307 307 307 307 307 306 306 306 306 306 306 306 305 305 305 305 305 305 305 305 306 306 306 307 306 305 304 305 304 303 303 303 304 303 303 304 303 303 303 303 304 304 303 302 304 305 304 305 308 309 304 306 307 303 306 307 304 306 303 304 310 303 298 300 297 297 298 296 297 298 297 296 298 298 292 289 288 288 289 287 287 287 287 287 285 284 284
307 307 307 307 307 306 307 306 306 306 306 306 305 305 305 305 305 305 305 306 306 307 307 306 306 306 308 307 303 303 303 303 303 304 304 304 304 303 303 303 304 304 304 303 301 304 306 305 305 306 308 309 306 303 304 308 307 305 306 305 305 309 305 298 299 298 298 299 297 297 301 305 302 299 295 290 288 288 288 288 287 287 287 286 286 285 284 284
307 307 307 307 307 307 307 306 306 306 305 305 305 305 305 305 306 305 306 306 307 309 308 306 306 306 308 307 303 303 304 303 304 304 304 304 304 304 303 303 305 304 303 303 302 303 305 305 305 304 305 307 304 304 310 311 309 306 303 307 306 303 307 303 299 301 298 298 297 297 301 304 303 302 295 288 288 288 288 288 287 287 286 286 285 285 285 284
307 307 307 307 307 307 306 306 306 305 305 305 305 305 305 305 305 305 306 307 307 308 307 307 306 307 309 305 302 303 303 303 304 303 304 305 304 304 304 303 303 303 304 303 303 303 304 304 305 306 304 303 307 313 316 312 311 308 303 312 309 302 310 307 299 301 299 297 297 298 302 302 301 301 293 287 287 288 289 288 287 287 286 285 285 285 285 284
307 307 308 307 307 306 306 306 305 305 305 305 306 306 305 306 306 307 307 307 308 307 307 307 304 307 310 305 302 304 303 303 304 303 304 305 304 305 305 304 303 303 304 302 303 303 302 304 302 303 305 306 312 316 314 311 314 311 305 309 310 304 307 306 301 301 300 299 297 298 301 301 300 299 291 287 287 287 288 288 287 287 286 285 285 284 285 284
307 308 307 307 307 306 307 306 306 306 306 306 306 306 306 307 307 307 307 307 306 305 306 305 304 306 307 304 303 303 303 302 303 303 304 304 304 305 304 304 303 302 304 303 304 302 301 304 302 302 305 304 306 311 313 313 314 315 309 307 307 304 304 305 304 301 299 300 299 299 299 298 299 298 292 288 287 287 288 288 287 286 286 285 285 285 285 285
307 307 307 306 306 306 306 306 306 306 306 307 306 306 306 307 307 307 307 308 307 307 309 305 306 310 306 303 303 303 303 302 303 303 304 305 305 305 305 305 303 302 309 307 303 303 302 304 305 305 307 303 303 310 313 308 306 307 307 307 306 304 303 303 304 301 299 300 299 299 299 298 298 298 294 288 287 287 287 288 287 286 286 285 285 285 285 285
306 307 306 306 306 306 306 306 306 306 307 307 307 308 307 306 307 307 305 306 308 309 308 306 306 309 305 302 302 302 303 302 303 303 303 305 304 305 304 303 303 305 315 312 304 305 304 308 312 309 308 304 302 306 306 302 302 303 302 302 304 304 303 302 303 302 299 298 299 299 299 300 299 298 297 291 287 287 287 287 287 286 286 285 285 285 285 285
306 306 306 306 306 306 306 306 306 306 307 308 308 309 310 313 314 312 307 306 307 304 303 305 304 304 304 302 302 303 303 303 303 303 303 304 304 305 302 304 310 309 312 311 303 303 305 310 311 306 305 302 302 304 303 300 300 301 301 302 302 302 302 301 301 302 300 299 302 302 301 300 298 297 297 293 288 287 287 287 287 287 286 285 285 285 285 285
306 306 305 305 305 307 307 307 307 306 307 308 307 308 314 318 314 309 307 305 304 301 301 303 301 302 302 302 302 301 302 303 303 303 303 304 304 303 302 307 316 309 306 307 304 303 307 310 306 301 302 300 301 303 302 302 301 300 302 303 303 302 301 300 298 300 300 299 301 302 299 298 297 297 297 294 289 288 288 287 287 287 286 286 285 285 285 285
305 306 305 305 306 308 308 308 308 307 309 309 308 310 312 313 308 306 307 307 305 302 302 302 301 303 302 301 303 300 303 306 304 303 303 304 305 304 306 309 313 307 304 306 307 309 310 307 303 301 302 302 302 302 303 305 305 302 302 303 303 302 301 302 300 298 298 298 300 300 298 297 297 296 296 294 291 290 288 288 288 288 287 286 286 286 286 286
306 306 305 305 306 307 308 309 309 309 311 310 310 310 308 308 307 306 308 310 307 304 304 305 304 306 304 304 303 302 305 305 305 305 302 305 307 308 312 313 312 310 307 308 311 316 311 303 303 303 301 301 303 305 305 306 306 303 301 303 303 300 299 302 301 299 298 297 298 300 298 298 298 297 296 293 291 291 290 289 288 287 288 287 286 286 286 286
306 306 306 306 305 307 309 309 309 309 309 309 309 308 308 308 308 308 310 311 309 306 305 304 303 305 305 304 303 304 306 303 303 304 302 304 306 306 310 312 314 311 306 307 311 313 306 300 303 306 305 303 301 305 305 304 306 305 302 302 302 299 298 300 299 297 298 298 297 298 300 302 302 302 301 295 290 291 291 290 290 288 287 287 287 287 286 286
306 305 306 305 305 306 307 309 309 308 308 309 308 308 308 308 307 308 312 311 309 308 306 303 303 303 302 303 304 304 305 304 303 303 301 302 305 306 306 307 312 311 305 305 307 307 303 298 300 305 308 306 302 302 300 299 302 306 305 302 300 298 297 298 298 297 300 301 297 297 304 309 304 302 304 297 291 292 291 290 291 290 288 287 287 287 286 286
305 305 306 305 306 305 307 310 309 308 309 308 308 309 307 308 308 308 315 318 311 308 307 304 304 304 303 304 303 303 306 306 302 301 302 301 302 305 306 306 306 309 308 305 304 303 301 299 300 305 308 308 305 301 298 299 301 304 304 301 299 297 296 297 297 297 303 303 297 296 303 308 304 302 302 297 294 294 292 291 291 290 290 288 287 287 287 287
306 306 305 305 305 305 307 311 310 309 309 307 308 308 305 307 308 307 315 319 311 307 308 306 305 305 305 303 302 304 307 306 302 301 301 300 301 302 308 308 304 307 307 304 305 304 300 301 302 305 309 308 305 301 299 300 302 304 302 298 298 297 296 297 296 297 301 300 298 297 298 302 304 302 297 293 296 297 295 294 292 290 290 289 288 287 287 287
306 305 305 305 305 305 307 309 309 309 309 310 307 306 306 306 307 311 315 310 305 307 307 306 305 304 306 304 302 306 307 303 304 303 300 300 300 304 311 310 306 308 304 303 308 305 298 301 302 303 307 306 301 299 299 298 299 304 302 297 297 297 296 297 297 299 298 298 303 300 295 301 305 301 295 292 296 299 300 300 298 294 292 290 289 288 287 287
305 305 305 305 305 305 306 307 307 308 310 309 305 306 307 305 308 315 316 307 306 308 306 306 305 304 307 306 304 308 306 303 306 304 301 300 299 304 308 307 307 307 301 304 312 306 298 301 301 300 302 302 300 300 300 299 299 302 300 297 299 298 298 298 299 302 300 302 308 301 295 301 305 303 300 296 298 303 302 302 301 297 293 291 289 289 288 287
305 306 305 305 306 305 306 306 306 309 310 307 305 307 306 309 322 322 312 308 307 306 307 306 305 306 307 305 305 308 306 307 309 305 303 302 302 303 302 302 308 308 305 307 307 304 300 299 301 302 300 299 299 298 298 298 299 300 299 300 301 298 297 299 301 302 304 309 309 299 296 300 304 305 303 301 305 307 303 301 300 297 295 293 290 289 289 288
305 305 305 305 306 305 307 306 306 308 309 307 304 306 306 313 327 324 307 307 308 307 308 306 307 310 310 305 305 309 307 307 308 307 307 306 308 310 304 304 309 313 318 316 305 301 301 301 302 304 301 298 296 297 297 296 297 300 299 299 304 304 300 302 307 306 308 315 308 297 295 298 302 306 305 303 304 303 301 300 300 299 299 297 292 289 288 288
305 305 305 305 306 306 308 308 308 306 307 307 304 311 320 314 316 319 308 305 308 309 308 305 306 309 309 306 305 307 306 304 306 308 308 306 307 306 303 305 308 313 323 318 308 307 305 302 301 301 299 297 297 300 300 298 299 302 302 303 310 314 309 310 315 311 310 312 302 295 297 299 299 301 302 302 302 301 300 299 299 298 298 297 295 292 289 288
305 306 305 305 306 306 308 309 308 305 305 307 307 318 328 318 314 317 311 307 307 306 306 306 306 306 307 307 304 303 304 302 304 305 302 303 307 302 298 300 300 305 312 309 306 313 314 306 300 299 299 297 297 300 302 302 300 300 302 305 312 312 310 313 313 307 308 308 299 293 297 300 302 303 303 302 302 303 301 298 297 296 295 296 295 293 290 288
305 306 305 306 306 305 308 307 306 306 305 308 313 317 316 316 316 313 311 312 307 305 307 306 306 306 305 305 303 302 304 303 303 305 305 305 308 305 301 300 298 302 310 307 303 308 314 313 305 301 300 297 295 298 300 300 299 298 297 299 307 308 308 311 311 309 309 306 299 294 298 305 308 310 307 304 302 301 299 297 295 293 292 291 291 291 290 288
306 304 304 306 305 305 306 305 306 306 306 314 322 316 313 319 318 312 316 314 307 306 306 304 306 307 307 309 305 301 303 304 302 305 307 304 305 307 304 302 299 301 308 309 305 303 306 311 305 298 296 295 296 296 297 299 299 297 295 297 303 306 306 307 305 303 300 301 301 299 302 306 304 304 302 298 299 298 295 294 294 295 293 289 290 290 289 288
307 305 305 304 304 306 305 305 307 304 309 322 321 314 322 324 310 308 313 307 305 308 305 305 309 307 309 312 308 302 301 303 302 303 305 304 304 305 303 302 299 300 305 308 307 304 307 311 302 296 296 294 295 295 296 300 301 296 297 300 298 296 302 305 301 297 295 300 305 302 305 303 300 305 305 299 300 301 299 297 295 295 292 290 290 290 289 288
306 305 303 303 304 306 305 306 306 305 314 322 315 316 325 314 302 307 310 303 304 307 304 307 309 306 310 312 309 307 303 302 303 304 305 305 305 304 304 302 298 297 301 303 304 303 308 312 302 296 298 295 293 295 296 296 298 298 299 300 295 293 300 302 300 302 301 304 305 301 305 304 300 306 309 304 304 305 305 303 297 293 291 290 290 290 289 289
305 305 303 302 304 304 305 307 305 309 319 319 313 316 315 306 301 305 306 302 304 307 306 308 307 305 310 312 309 305 303 306 309 306 306 306 305 305 305 303 298 296 297 297 302 302 303 310 306 296 297 297 294 296 299 295 294 297 297 296 296 300 306 302 301 306 305 305 305 301 302 304 302 307 311 308 307 305 304 302 299 298 296 293 291 290 290 289
306 309 306 303 304 305 306 305 306 314 320 316 318 316 306 306 305 302 303 303 303 306 307 306 304 303 306 310 309 304 301 307 309 305 305 306 304 302 301 302 299 297 297 296 300 301 300 307 309 298 294 297 296 297 303 300 294 295 295 294 296 301 305 302 299 302 305 305 306 304 303 306 306 310 312 308 305 304 302 301 301 300 298 295 294 292 291 289
307 313 310 303 303 307 305 305 314 323 317 312 320 316 304 306 306 301 302 303 302 304 305 305 304 303 306 306 305 304 303 305 305 305 306 305 304 302 299 299 299 298 297 296 297 301 300 303 309 304 295 297 300 299 303 303 298 297 297 297 298 297 298 299 296 298 303 305 305 304 306 307 304 306 307 304 304 302 301 301 301 299 298 296 294 292 291 289
308 315 313 304 302 305 306 310 317 320 317 311 312 310 306 306 305 302 302 302 302 302 302 305 305 304 308 306 303 304 306 306 305 305 307 304 304 303 299 298 299 297 297 297 297 301 301 301 307 308 302 303 305 298 295 298 300 301 302 303 302 300 300 302 300 298 297 300 303 303 303 303 301 302 304 302 302 302 301 301 300 299 297 296 294 292 290 289
310 314 310 304 303 305 309 313 310 309 317 312 305 305 306 305 303 303 302 300 302 301 300 304 306 306 309 306 303 305 306 306 305 304 307 305 303 303 300 297 299 298 300 301 298 298 300 301 304 305 304 304 300 293 292 295 296 297 299 300 301 302 303 305 307 302 297 297 297 296 298 301 300 302 304 303 302 302 300 299 298 297 296 294 293 292 290 288
317 315 307 304 305 305 310 312 307 309 315 307 300 302 303 303 303 302 301 301 301 301 303 306 304 304 306 303 303 304 303 305 306 305 307 307 302 300 297 296 297 298 301 300 297 297 299 301 303 305 307 303 296 292 292 293 293 295 297 296 297 301 302 303 304 302 300 300 297 296 299 301 300 301 302 301 301 299 297 296 295 295 294 293 292 291 290 288
319 311 306 305 304 305 310 311 309 314 314 304 302 303 301 302 303 302 304 305 302 302 306 307 303 301 303 302 303 304 301 303 305 303 303 305 301 296 295 298 296 295 298 300 299 298 300 304 305 306 309 308 304 302 301 298 295 295 298 297 296 298 298 297 296 295 298 300 300 301 302 301 300 301 299 299 299 298 298 296 295 294 293 293 293 292 290 289
312 307 310 310 304 304 308 312 319 325 317 306 305 305 302 301 301 302 305 305 302 302 305 304 301 301 303 302 302 303 300 302 303 301 300 302 300 296 296 298 297 296 298 298 297 297 299 304 303 304 308 309 310 310 309 307 302 297 297 296 295 296 297 297 297 297 298 298 297 301 303 301 300 301 299 299 299 298 299 299 298 297 295 294 293 293 292 290
308 310 316 315 309 308 306 305 314 325 319 312 307 305 304 303 302 301 302 302 301 301 302 302 300 301 303 301 302 305 302 300 300 300 301 303 301 297 296 297 298 298 299 298 297 298 299 300 299 302 307 307 308 307 302 301 302 299 298 297 296 295 294 297 300 299 298 297 296 299 300 299 299 299 298 299 299 299 299 299 299 298 297 296 295 294 293 291
307 309 313 311 310 313 309 307 312 316 311 309 306 303 305 305 302 300 299 300 301 300 300 301 300 301 302 302 303 306 304 300 299 299 300 302 300 296 294 295 297 298 298 296 296 297 299 299 298 300 302 302 303 302 297 296 298 298 298 299 298 295 293 295 298 298 298 299 299 298 298 297 298 298 298 299 298 299 299 298 298 297 296 296 295 294 293 292
304 307 307 304 306 310 306 306 314 314 306 305 305 304 306 306 305 304 301 298 299 300 300 301 302 303 305 305 304 305 304 302 302 302 300 300 300 297 296 295 294 295 296 294 295 297 299 300 299 297 300 301 298 296 296 296 296 296 297 298 297 296 295 295 296 296 297 299 300 299 299 299 298 298 298 298 298 298 297 297 296 296 295 295 294 294 294 293
303 306 303 300 306 311 305 303 311 314 309 307 307 305 308 310 308 307 302 300 302 300 299 303 307 306 307 305 303 305 307 304 303 304 302 300 299 299 301 300 296 293 294 294 294 295 298 301 299 296 298 300 298 296 297 296 297 297 297 296 296 296 295 295 295 295 295 296 297 297 297 297 296 297 297 296 297 296 295 295 295 296 296 296 295 295 294 293
307 307 304 305 308 307 304 304 307 310 306 304 305 305 307 312 311 306 302 302 305 303 299 303 309 309 307 305 303 306 309 305 301 301 302 301 299 300 304 304 301 295 293 294 294 292 295 301 299 296 298 300 300 299 299 297 297 297 296 296 296 296 295 294 294 293 294 295 295 294 295 295 294 295 295 295 295 295 295 296 296 297 297 297 296 295 295 294
307 303 303 311 310 303 306 307 304 307 306 304 305 305 306 311 311 307 304 302 304 305 303 304 308 308 303 302 304 307 306 303 301 300 300 300 300 301 300 300 303 302 297 294 294 293 294 299 299 298 300 301 300 299 299 297 296 298 301 301 299 297 298 297 294 293 294 296 296 295 296 297 297 297 297 297 297 297 297 297 297 297 297 297 296 295 295 295
305 301 302 314 311 302 306 308 303 305 309 310 308 305 306 310 309 305 304 304 301 302 301 303 306 305 304 305 306 304 301 300 300 298 297 298 299 300 299 297 301 305 300 295 294 293 293 297 299 297 300 304 301 298 297 296 300 306 306 304 303 300 300 300 297 295 295 295 297 299 299 299 299 298 298 297 298 298 297 297 297 296 296 295 295 295 295 295
Wind_Speed
10 12 11 11 12 10 9 8 9 9 9 11 12 13 12 11 9 8 6 6 6 4 2 1 2 2 2 4 5 5 11 19 24 30 25 18 23 21 19 15 13 12 10 8 6 5 5 8 12 11 7 4 5 4 4 4 4 5 4 4 3 3 3 5 7 6 4 4 6 7 3 6 4 3 2 4 7 4 4 4 3 5 7 6 7 18 27 24
10 10 10 10 11 11 9 8 8 7 8 9 9 10 10 9 7 6 5 5 4 2 1 1 3 3 3 5 6 5 5 11 24 28 23 21 22 18 15 13 11 9 9 5 4 5 5 5 9 9 7 3 4 4 4 4 5 4 3 4 2 5 3 4 7 6 4 6 5 5 5 5 5 5 3 3 1 1 4 3 4 5 5 7 11 19 23 21
9 9 9 9 9 9 9 7 7 7 8 8 6 6 8 8 7 6 5 3 2 2 1 4 6 5 7 8 8 7 6 8 15 18 22 23 19 17 16 13 10 8 7 3 1 3 4 2 4 6 5 4 3 4 4 4 4 2 4 4 4 6 2 1 5 6 6 9 8 5 5 3 4 5 2 4 3 1 2 3 1 1 4 5 7 14 18 18
8 9 9 8 8 8 7 6 6 8 8 7 6 6 7 8 6 4 3 2 2 2 3 6 7 9 12 11 9 7 6 7 7 13 22 22 19 18 16 14 10 7 5 2 3 5 6 5 5 5 5 4 4 4 5 4 2 2 3 4 6 5 4 2 4 5 5 8 9 6 5 4 4 2 3 7 5 3 6 7 7 8 10 8 7 12 15 16
7 8 8 8 8 7 5 5 6 8 7 6 7 6 6 6 4 2 1 3 3 3 3 4 7 7 7 8 8 6 4 5 5 16 22 20 19 16 14 14 8 5 3 2 5 9 9 5 6 6 5 3 5 5 4 4 3 4 2 3 6 5 5 4 3 5 5 6 7 7 6 5 4 1 4 9 6 5 6 7 9 8 11 12 11 12 12 14
7 8 8 8 9 8 6 7 7 8 7 6 7 7 6 5 3 3 2 1 2 3 1 5 9 13 13 6 2 0 5 3 8 19 20 18 18 13 13 12 5 2 1 4 7 10 7 5 7 5 4 3 4 3 2 5 3 5 1 1 3 3 5 4 2 2 4 7 6 7 5 4 5 1 4 7 6 6 5 6 8 8 12 15 14 14 12 13
7 7 8 8 10 11 9 9 8 8 8 8 8 7 6 5 4 4 4 2 1 2 6 7 5 9 12 12 12 10 8 2 12 18 16 16 17 12 10 11 6 2 2 5 7 7 6 7 6 3 5 3 1 3 2 5 6 6 2 1 1 2 5 3 2 2 6 7 4 5 4 5 6 4 2 5 7 5 7 3 9 12 15 16 14 13 13 14
6 7 8 8 9 10 11 11 10 9 9 10 8 6 6 5 5 6 5 4 2 2 8 7 1 4 6 6 8 9 5 4 15 17 13 13 17 17 11 13 11 4 6 11 6 5 6 7 6 4 4 2 3 3 2 5 7 5 3 2 2 3 3 3 4 6 7 5 3 5 3 2 4 4 3 6 6 4 3 5 12 14 14 12 11 12 13 14
6 7 8 8 7 8 9 10 11 10 10 9 7 5 5 5 6 7 6 3 2 1 6 7 5 5 5 3 6 6 3 7 14 13 11 11 16 20 19 20 19 10 12 13 7 5 4 3 4 4 5 2 4 3 2 6 3 2 4 2 4 4 1 2 5 6 5 3 3 5 2 3 2 1 2 6 5 3 2 6 9 10 10 8 8 12 14 14
6 7 8 7 7 6 7 8 8 8 8 8 6 5 5 5 8 8 8 7 8 5 1 2 2 4 3 1 6 5 5 9 12 10 9 10 13 19 22 24 23 16 12 13 13 8 3 5 6 7 8 3 4 3 3 5 2 3 6 4 6 4 1 2 3 3 2 1 2 3 1 4 2 1 3 6 6 4 5 6 5 7 8 8 7 11 15 15
5 7 8 7 6 5 6 7 6 5 6 5 4 4 5 6 8 8 8 8 9 10 8 9 8 6 9 10 7 4 5 10 12 9 7 9 14 18 19 20 22 20 13 13 15 10 7 10 10 8 4 2 3 4 4 3 3 4 7 5 6 5 2 3 3 4 1 0 3 5 2 4 3 2 5 6 7 6 7 7 6 6 7 8 7 10 13 15
5 6 8 7 6 4 5 5 5 4 4 3 3 4 6 7 7 5 4 2 2 4 4 2 3 4 15 15 5 2 6 11 12 9 6 8 13 15 15 14 17 20 15 14 14 9 8 7 9 8 1 3 3 3 2 3 4 4 6 5 4 8 3 1 1 4 2 1 5 5 1 3 4 6 7 4 8 7 7 8 7 8 7 7 7 8 11 16
5 6 6 6 5 3 4 4 4 3 3 3 4 5 5 6 4 2 1 1 0 4 5 4 3 1 8 6 1 3 7 12 11 5 5 8 10 12 13 11 13 17 18 17 14 10 9 9 16 11 2 5 2 0 3 5 4 2 5 5 1 7 2 4 2 2 3 2 5 3 3 5 7 9 6 4 9 8 7 9 8 8 7 7 7 6 9 15
5 5 5 5 4 3 4 4 3 2 3 5 6 5 4 4 3 2 3 2 1 4 3 8 8 5 7 2 1 5 8 9 8 5 7 7 7 9 11 12 12 14 18 19 17 15 15 18 21 10 2 5 2 2 5 6 4 2 3 2 2 3 4 5 4 1 2 2 3 2 3 6 8 9 5 6 9 10 10 10 8 8 7 7 7 7 8 13
6 5 4 4 4 4 4 5 4 4 5 5 5 5 4 4 3 4 3 2 1 3 1 3 6 5 7 2 1 5 8 8 10 11 11 7 6 6 7 9 12 13 16 18 16 16 17 19 16 6 2 4 4 5 5 4 4 3 2 3 3 0 5 7 4 2 3 1 2 3 3 7 7 7 5 7 8 10 10 10 9 9 9 8 7 8 7 11
7 5 5 5 5 5 5 5 5 5 4 3 4 4 4 6 5 5 3 1 2 3 2 2 6 6 6 1 1 5 7 9 12 12 9 7 7 7 6 4 6 9 11 14 13 12 17 17 9 3 2 5 6 6 4 4 4 3 2 2 3 1 4 6 2 1 2 1 1 2 3 6 5 5 4 7 8 10 10 10 10 10 10 9 7 7 7 8
6 5 4 5 6 5 4 4 5 5 4 5 7 8 6 6 5 5 4 5 5 3 4 4 5 6 4 2 2 4 5 8 12 11 8 7 7 7 5 2 1 4 6 10 12 10 12 10 3 2 5 5 4 4 3 3 4 3 3 1 3 2 3 5 4 3 4 2 2 3 4 9 9 4 4 8 9 10 10 11 11 10 9 8 7 7 8 8
5 5 5 6 5 4 4 5 6 7 8 8 10 11 10 7 5 5 3 2 2 2 4 5 6 4 2 3 2 4 7 9 11 11 8 4 5 7 8 6 3 4 4 7 11 9 6 5 3 3 4 5 5 6 3 1 2 2 3 2 3 3 3 5 5 2 5 3 4 4 7 12 11 6 5 9 9 11 13 11 9 10 9 9 8 8 9 9
6 6 7 6 6 5 5 6 7 8 8 8 9 9 10 8 5 6 10 8 1 1 1 4 4 3 1 3 3 6 7 7 8 10 9 5 3 4 8 10 5 4 4 3 6 6 3 4 5 4 3 4 3 3 4 4 5 5 4 3 4 5 4 6 7 3 3 4 7 7 7 10 11 8 6 8 9 11 12 9 8 9 8 8 8 9 9 10
7 9 10 9 7 5 5 4 5 6 7 6 4 3 4 4 4 5 11 11 3 1 1 1 1 2 1 2 5 8 4 4 5 10 13 9 4 2 6 9 7 6 5 1 3 4 3 5 4 1 3 5 5 4 4 2 4 5 3 3 5 5 6 7 6 5 3 3 7 6 6 11 12 12 8 7 8 10 11 10 10 10 8 9 10 11 11 11
11 15 13 10 7 5 4 4 4 5 5 5 3 1 1 2 2 1 2 5 2 0 1 1 2 1 1 1 6 7 2 2 4 12 17 10 3 2 5 6 6 6 4 1 2 3 5 6 1 5 6 4 3 4 3 3 3 3 3 2 4 4 6 7 4 5 4 4 6 5 8 13 13 13 8 6 8 12 14 13 13 13 10 9 10 13 12 10
16 18 12 9 9 7 6 4 2 4 6 7 4 3 3 4 5 4 3 3 3 2 2 2 1 2 0 2 7 6 4 4 6 12 17 12 5 2 2 6 6 2 4 2 1 4 6 3 5 6 4 4 4 3 4 5 5 3 1 0 4 3 5 7 3 2 3 3 6 7 10 13 12 11 8 7 10 10 11 13 13 11 11 10 11 12 11 10
19 18 10 8 10 9 7 4 1 1 5 6 6 8 8 8 7 4 4 4 1 2 3 3 2 3 3 3 8 8 6 4 3 9 17 13 5 3 3 6 5 2 5 4 3 3 3 2 5 1 5 6 2 4 6 5 3 1 1 0 4 3 1 4 3 3 3 3 5 8 10 11 7 5 5 6 8 6 5 8 9 8 11 12 11 10 11 12
19 18 10 4 8 9 7 5 5 7 8 11 13 12 11 9 7 3 4 3 0 1 1 1 1 1 2 3 7 6 4 1 1 6 15 9 2 2 4 4 4 4 3 4 6 6 2 3 3 5 4 4 2 4 6 5 4 3 4 4 4 4 3 5 5 6 6 2 3 6 8 7 5 5 6 3 2 6 5 6 9 9 10 10 9 10 12 12
18 17 10 2 4 7 6 3 5 9 12 14 14 12 10 7 4 3 4 2 1 2 2 1 1 1 2 3 6 2 3 1 1 4 9 6 2 1 2 2 4 3 4 1 7 6 2 1 2 4 5 4 3 1 2 3 3 4 4 6 6 5 5 6 6 6 5 3 2 3 4 6 5 4 7 3 3 6 4 5 11 11 8 8 9 12 12 11
16 15 10 6 2 5 4 1 3 8 8 8 10 10 6 4 2 3 4 3 1 3 2 1 0 2 1 4 6 1 3 2 2 3 6 5 1 2 3 2 2 3 6 2 3 3 1 2 3 4 4 5 4 0 2 4 2 3 3 5 5 4 5 6 4 2 1 3 3 3 2 5 6 5 6 4 5 8 5 7 13 11 9 9 11 12 11 11
14 13 11 9 5 4 4 2 4 6 5 3 8 7 3 2 3 4 4 4 2 2 1 1 1 3 0 3 4 2 1 4 2 4 6 6 3 2 4 1 1 2 3 2 2 0 2 2 4 4 5 5 3 1 4 6 3 4 3 1 3 5 5 4 3 3 2 3 4 3 3 2 6 5 3 3 5 8 8 10 12 11 11 12 12 13 12 12
13 12 11 9 7 5 3 3 4 4 3 4 9 6 1 1 3 4 4 2 2 0 2 1 0 2 1 2 5 4 1 3 1 2 6 9 5 2 4 2 4 2 1 3 0 2 2 1 1 1 3 3 1 2 5 6 1 6 4 2 5 4 3 3 4 3 1 3 4 4 2 1 6 5 2 3 4 8 10 11 12 11 12 12 13 13 13 13
10 10 9 8 8 6 4 1 3 4 3 4 9 6 1 1 3 5 4 1 1 1 1 1 1 2 3 3 5 4 2 2 2 4 6 8 6 5 4 2 6 5 2 4 3 3 0 2 4 4 2 2 4 4 5 7 4 6 4 3 1 2 1 3 4 3 2 3 3 4 1 1 5 6 3 2 2 6 9 9 10 10 10 11 11 12 12 11
9 9 8 9 8 5 4 1 1 2 2 4 9 6 0 3 5 6 1 3 1 1 1 1 1 2 4 4 4 5 3 2 3 4 5 3 6 8 4 2 5 6 2 5 2 2 2 2 2 2 2 3 3 3 4 6 5 5 6 4 3 4 3 3 2 3 4 3 5 5 1 2 3 6 4 3 4 6 6 7 8 9 9 10 10 10 11 10
7 8 7 7 6 4 1 2 1 3 3 6 9 4 3 3 5 5 2 4 0 2 1 2 2 4 6 3 1 4 4 4 5 4 4 4 6 7 4 1 3 4 4 4 2 3 5 2 1 2 2 2 2 2 1 2 3 4 3 3 4 4 3 3 4 4 3 4 5 3 2 2 2 6 5 5 7 6 6 8 10 10 10 10 9 9 10 9
3 4 4 4 3 2 1 2 0 4 6 8 7 3 5 2 0 2 3 3 1 2 0 1 2 3 4 2 1 3 3 3 4 4 3 3 4 3 2 1 1 3 4 2 2 4 3 2 3 3 1 2 2 2 3 3 4 4 3 3 4 4 4 3 4 2 1 5 3 3 1 0 5 9 9 10 11 10 9 10 11 11 10 10 9 9 8 7
1 1 1 1 0 0 1 1 2 6 9 9 5 5 7 3 3 4 2 2 1 2 1 2 1 1 2 1 2 2 1 1 3 3 1 1 3 2 1 1 3 2 1 2 1 4 3 4 3 1 1 1 4 1 2 2 3 4 2 3 3 2 4 3 4 3 3 5 2 2 1 3 5 7 10 13 13 10 8 9 10 10 10 10 8 7 7 7
4 4 3 3 4 3 3 3 6 9 9 7 5 4 4 1 5 3 2 3 1 2 2 2 2 2 2 1 1 2 0 1 2 3 2 1 3 1 2 2 0 2 3 2 0 0 1 4 3 2 1 1 3 3 3 2 2 1 2 3 3 3 1 3 3 2 4 5 3 1 1 3 3 5 7 9 9 8 6 7 7 8 10 8 7 7 7 8
5 5 6 7 7 5 5 6 7 8 7 5 6 4 3 4 4 2 3 4 1 1 1 1 3 4 3 2 2 0 1 1 1 2 2 1 1 2 1 2 1 2 3 1 2 1 1 5 4 0 1 2 2 2 3 4 2 0 2 2 1 3 4 2 3 4 2 4 3 2 3 5 4 9 10 4 6 8 6 6 6 9 10 6 7 9 9 9
4 5 7 8 7 5 5 5 6 6 5 5 6 2 4 4 2 2 3 1 2 3 1 2 3 3 3 4 3 2 1 1 1 1 1 1 3 3 2 3 2 3 3 2 2 1 1 5 4 3 2 2 1 2 2 2 0 1 1 2 3 3 5 3 1 1 3 2 4 1 4 6 4 9 9 5 6 8 6 6 7 9 9 5 8 11 10 10
4 4 5 7 5 3 4 4 5 4 4 6 4 3 4 3 2 3 2 1 1 3 4 1 1 1 2 2 2 2 1 2 1 1 1 2 2 3 3 2 2 3 3 2 2 2 2 4 4 2 1 2 1 2 2 3 2 3 1 3 2 2 4 3 1 4 4 1 4 1 4 7 4 4 7 6 7 9 8 8 7 9 8 8 11 12 11 11
3 4 5 6 4 2 3 3 4 4 4 5 1 4 3 2 0 1 1 1 1 3 4 2 2 1 2 1 2 2 1 1 2 1 1 2 2 3 4 2 2 2 2 2 1 0 2 2 5 1 1 3 3 2 3 3 2 2 2 2 2 1 1 1 0 1 3 3 6 3 4 5 4 5 6 6 8 9 9 8 7 9 9 9 11 12 13 11
3 3 3 4 3 1 2 3 2 4 5 2 3 3 1 1 1 1 1 0 1 3 2 3 1 1 2 3 2 2 2 3 2 0 1 1 2 2 3 2 2 2 2 3 2 1 2 1 4 2 1 3 3 1 2 1 2 3 1 1 2 2 3 1 1 2 1 3 4 4 3 4 7 7 5 9 11 9 9 8 8 10 10 9 10 10 11 10
3 2 1 2 2 2 1 2 2 5 3 2 4 2 1 1 2 2 1 1 1 1 1 3 1 0 3 3 3 2 1 2 3 2 2 2 2 2 2 2 3 3 2 3 2 0 2 2 3 4 3 2 1 3 5 5 4 2 1 1 1 0 2 0 0 3 3 2 3 3 4 7 9 4 6 12 13 10 9 8 9 10 10 10 10 10 10 9
4 2 2 1 1 1 2 4 4 3 2 2 2 2 1 0 1 2 3 1 0 1 1 3 3 2 3 2 2 2 2 2 3 2 3 2 2 2 1 2 4 5 2 3 1 0 1 3 3 3 3 3 4 3 3 5 6 5 4 4 3 3 3 0 3 1 1 3 4 2 4 11 10 2 6 10 10 9 9 8 9 11 11 12 11 11 10 10
4 1 2 1 0 1 4 4 2 2 3 1 1 1 0 1 2 1 2 1 1 0 1 2 2 2 3 2 2 3 2 1 2 2 3 3 3 2 2 3 3 4 4 2 2 2 2 3 1 4 5 5 4 2 0 3 4 4 3 3 3 4 5 4 3 3 1 1 2 3 1 12 10 3 5 8 7 7 8 7 9 11 11 12 12 12 11 10
2 3 0 4 2 0 5 2 3 2 1 2 1 1 0 1 1 0 1 1 0 1 1 1 2 2 2 1 2 3 3 2 4 3 3 3 1 1 2 4 2 3 4 1 2 1 2 2 0 4 5 3 2 1 1 2 3 2 2 2 4 3 4 5 5 3 2 3 2 2 3 11 9 1 4 6 4 6 8 8 10 11 11 12 13 12 10 10
2 3 0 4 3 1 3 2 2 0 2 2 1 0 1 0 2 2 1 1 1 1 1 1 1 1 0 1 2 2 3 2 2 2 1 2 1 2 3 4 2 2 1 2 2 1 1 1 1 3 6 6 5 4 5 4 0 2 3 2 3 3 6 3 2 2 2 5 7 4 6 11 8 2 3 6 6 9 11 10 10 10 11 12 11 11 10 10
2 0 2 4 4 3 3 3 4 3 2 0 1 1 1 1 0 2 2 2 1 2 1 1 1 1 1 2 1 0 1 1 2 1 1 1 2 2 3 3 2 1 1 1 1 1 2 2 2 0 3 5 6 6 3 2 2 2 1 3 4 5 7 3 1 3 3 5 7 6 9 12 11 11 14 14 12 14 17 15 11 9 10 11 11 11 10 10
1 0 2 4 5 6 2 1 4 4 3 3 0 1 1 1 2 1 1 2 1 2 1 1 0 1 1 1 0 2 2 1 1 1 1 2 3 2 1 2 2 0 1 2 3 2 2 1 3 5 6 6 9 7 1 2 3 6 4 5 6 6 7 4 3 4 5 3 4 10 14 15 19 20 20 18 16 16 18 17 15 13 11 11 11 12 11 10
1 1 1 1 2 3 3 3 3 3 2 3 2 1 2 1 2 1 0 1 0 1 1 0 1 2 2 2 1 2 2 0 1 1 2 3 2 2 1 1 1 2 0 2 2 3 3 3 4 7 9 11 13 11 4 4 7 11 9 6 8 8 7 7 8 8 5 4 7 14 11 10 18 21 19 18 18 17 17 18 17 16 14 13 13 14 14 13
0 2 2 1 1 0 1 1 3 4 2 1 2 1 2 1 1 2 1 0 1 0 1 0 2 5 6 5 3 1 1 1 2 3 1 1 1 2 3 0 0 3 2 2 2 3 4 4 4 4 7 11 13 13 8 6 9 10 10 10 9 9 10 14 18 12 7 5 14 15 9 10 17 21 20 20 19 18 19 19 18 16 16 15 16 17 17 16
1 1 0 1 1 3 1 1 3 5 3 2 1 1 3 4 4 4 2 2 2 2 2 2 6 6 6 5 3 2 3 2 2 4 2 2 1 0 1 2 1 3 3 2 2 1 4 3 3 2 5 11 14 13 8 7 7 7 10 12 10 11 14 17 18 12 8 12 20 20 19 19 19 22 23 22 19 16 16 17 18 18 18 16 17 17 17 16
1 2 2 2 3 1 1 2 3 4 2 1 0 1 3 5 5 3 1 3 1 2 2 3 6 4 4 5 5 4 6 4 1 3 4 3 1 2 3 3 2 2 2 2 1 1 2 2 1 3 3 9 10 7 5 6 6 7 15 17 10 11 13 14 14 9 7 13 19 18 18 18 18 19 19 17 15 13 13 17 20 19 17 16 17 18 17 17
1 2 3 4 3 1 2 2 3 4 1 1 2 2 2 4 6 4 1 2 3 3 5 6 3 0 2 3 6 7 6 5 3 5 6 5 3 4 3 2 5 4 2 2 0 0 2 2 2 5 3 7 3 5 8 9 6 8 16 17 8 7 8 8 7 6 8 10 12 10 10 12 14 13 12 12 12 12 15 18 20 20 19 18 18 19 20 19
3 2 2 5 2 1 0 1 2 1 2 2 2 3 1 2 4 3 1 1 2 2 3 5 4 2 2 3 7 7 5 5 6 5 4 4 2 2 1 2 5 6 5 4 1 1 3 2 1 3 2 7 4 5 9 9 7 6 8 6 3 5 6 6 4 6 10 8 5 6 9 12 13 13 15 17 16 15 16 17 18 20 22 21 20 20 20 19
Wind_Direction
89 85 83 81 80 83 97 115 124 128 126 120 113 107 101 96 94 100 112 118 126 120 113 107 16 18 30 19 15 30 37 46 49 43 41 9 351 355 355 349 335 338 347 338 348 1 10 12 0 14 52 55 7 341 19 35 45 59 76 87 106 162 163 173 182 187 153 146 189 211 186 132 164 227 174 43 36 47 46 22 4 21 35 64 100 131 144 151
93 88 85 81 80 80 88 105 123 134 134 128 120 113 101 89 88 100 117 120 131 142 163 278 316 279 292 325 328 346 356 24 38 35 20 2 1 4 359 352 337 338 348 342 352 14 34 4 353 22 51 38 356 352 9 16 46 78 110 90 157 193 165 167 175 183 151 144 172 182 174 161 167 178 152 93 338 354 68 9 347 22 47 82 112 132 145 155
96 90 86 80 78 76 80 91 113 135 141 140 131 116 97 88 90 98 117 128 163 211 247 302 309 285 297 305 303 317 314 6 34 18 1 3 9 10 4 353 343 348 354 11 35 37 71 47 9 40 57 47 2 3 24 18 36 101 110 86 210 203 149 196 176 176 163 140 142 167 176 162 163 166 132 133 162 285 164 194 245 218 188 147 139 143 152 161
101 91 86 81 79 74 76 87 116 141 155 160 139 116 102 95 93 93 132 184 231 251 291 318 322 298 289 289 293 299 321 27 30 348 354 4 11 12 5 352 350 357 357 38 100 103 106 104 73 63 67 44 345 15 34 354 28 84 101 140 190 164 114 230 186 145 143 136 144 160 139 137 178 158 127 139 126 283 244 212 198 199 187 173 171 161 160 165
105 92 87 83 76 64 74 102 126 146 165 166 134 118 108 96 79 79 176 237 254 265 303 9 18 356 314 281 270 281 356 45 338 345 359 6 13 14 8 358 349 354 5 79 119 120 118 99 65 50 61 42 347 24 24 335 64 68 358 153 156 130 132 215 205 139 131 112 121 145 148 156 161 93 157 157 158 223 240 228 214 198 175 169 172 169 167 170
110 94 90 85 72 60 80 114 126 147 160 146 126 118 102 77 57 89 137 238 255 258 191 94 58 48 51 56 152 89 66 92 326 349 1 8 13 12 18 11 358 359 35 117 119 118 109 57 51 44 56 42 5 50 359 329 59 91 7 108 146 154 146 182 216 169 128 108 127 165 164 126 123 150 188 185 209 233 275 254 209 183 170 165 163 168 174 178
116 98 94 90 78 71 82 105 118 139 145 130 120 107 84 60 62 96 111 111 117 196 168 145 71 45 50 64 81 71 81 82 341 354 3 15 20 16 25 26 41 160 171 92 93 110 94 63 77 97 75 63 51 71 4 349 48 87 129 182 137 142 126 133 145 104 93 110 160 162 133 127 151 164 158 222 247 277 300 248 156 155 160 160 162 176 186 187
122 105 101 98 91 84 83 93 104 115 122 120 111 91 73 63 73 90 94 96 90 154 168 169 353 359 6 40 79 61 56 342 345 356 7 27 35 34 42 38 40 102 92 62 75 118 92 85 119 137 85 84 126 94 31 37 41 69 136 182 103 81 74 72 85 83 80 97 110 95 100 196 184 159 152 228 255 281 284 124 132 144 152 162 173 187 193 195
127 114 111 107 106 102 90 89 98 106 111 112 104 87 72 71 87 88 83 70 23 208 207 228 275 289 315 354 87 63 345 341 348 355 15 35 41 42 51 42 34 59 72 56 63 97 93 127 175 158 136 152 104 94 39 62 47 129 113 129 115 96 77 75 68 77 90 112 106 78 18 285 237 214 210 219 223 225 169 119 132 144 155 179 188 197 199 200
131 119 118 117 118 118 102 93 102 108 110 110 101 87 76 89 102 96 88 77 67 70 156 183 327 286 263 7 76 69 328 353 360 360 23 36 40 42 46 38 32 45 60 54 53 51 69 151 154 126 120 112 83 62 27 78 131 125 92 79 90 94 308 73 93 118 120 157 142 106 206 262 279 314 250 218 197 180 144 137 160 159 177 197 199 208 207 207
135 124 121 124 126 126 108 99 111 116 120 115 92 85 91 111 112 101 99 88 80 76 79 92 68 49 79 74 83 85 353 6 9 8 25 39 43 39 36 30 30 37 49 54 45 39 81 124 127 108 95 81 80 44 24 80 102 96 103 81 33 12 351 59 112 182 221 271 151 120 132 269 307 285 238 208 176 167 157 166 189 187 200 206 208 218 215 219
140 134 124 127 130 128 113 111 124 127 132 110 82 99 110 126 124 114 114 95 83 56 23 19 348 41 73 66 74 78 4 11 7 3 24 42 45 38 29 27 33 39 50 52 35 46 94 116 100 83 84 118 86 37 54 75 80 83 88 92 353 358 3 267 171 189 203 213 172 135 67 278 236 236 249 197 160 160 168 181 198 204 214 216 216 222 222 227
151 146 130 132 134 134 128 128 135 135 141 110 98 113 124 146 148 158 193 241 295 19 8 25 1 117 84 60 35 32 9 12 6 353 38 44 49 47 38 36 44 47 55 60 47 62 96 102 93 91 98 103 98 347 86 48 60 75 50 93 6 3 330 251 296 194 173 174 186 161 312 275 241 245 251 178 158 157 182 200 206 210 218 221 220 225 229 230
159 159 142 144 147 150 144 136 133 123 125 113 101 105 129 163 172 197 203 197 305 344 31 74 58 88 92 96 224 22 10 19 23 22 29 35 57 60 54 54 60 56 57 64 65 76 94 94 90 90 68 82 94 29 45 19 32 56 13 55 47 8 268 281 332 3 96 175 185 85 292 265 271 267 228 172 169 170 194 209 210 215 219 221 222 224 233 233
159 168 164 162 157 154 148 137 128 117 119 110 91 94 114 143 155 164 172 211 316 348 158 84 29 84 86 56 226 10 12 34 32 18 9 12 39 34 33 55 68 64 59 59 64 75 83 84 77 62 349 23 43 53 33 1 22 34 350 309 352 273 269 311 332 68 64 220 161 105 258 265 272 267 210 174 179 184 203 214 213 220 221 221 226 225 234 239
155 163 176 171 154 148 148 144 140 132 118 77 69 87 113 129 133 139 127 125 83 46 105 50 15 83 97 20 353 12 15 19 11 7 360 1 7 343 341 43 73 67 62 54 59 64 59 66 69 51 23 14 46 69 43 19 1 2 44 280 296 282 297 320 320 47 59 172 214 174 242 277 271 264 209 180 188 197 212 223 219 224 226 223 226 228 233 243
157 161 174 166 151 151 160 149 144 137 114 94 89 89 112 128 124 131 104 95 111 59 66 57 21 75 87 5 8 357 348 349 352 360 360 6 11 357 3 63 39 41 55 39 37 36 32 43 64 53 48 38 54 75 56 11 319 322 26 5 280 270 293 313 299 326 30 71 272 244 240 261 264 268 218 197 195 200 217 227 223 225 229 227 229 233 235 239
165 161 169 168 160 172 176 147 141 138 124 109 98 93 103 110 109 120 85 96 181 346 38 28 19 76 51 353 346 315 318 333 347 358 358 6 33 37 50 58 25 11 18 18 23 23 16 24 50 57 35 21 32 62 91 246 251 254 296 312 305 289 265 286 276 297 25 20 266 260 258 265 270 268 227 210 198 204 221 226 227 230 230 231 231 234 236 238
174 167 173 164 145 150 150 143 146 144 132 113 104 100 99 93 83 71 50 48 49 346 352 345 19 109 277 318 319 319 324 347 1 4 2 354 358 40 45 39 41 50 44 21 8 14 25 30 41 54 13 345 357 89 139 207 198 203 240 222 256 285 266 260 262 274 8 327 269 252 257 270 280 275 240 217 203 211 229 232 235 236 231 235 234 236 238 238
173 157 151 135 125 140 144 155 168 154 144 138 123 91 91 78 45 17 31 44 68 145 162 270 110 102 10 320 334 341 340 12 23 13 8 356 325 354 18 19 32 50 55 35 335 359 66 64 56 143 238 257 243 195 159 190 185 174 174 200 243 266 274 272 275 287 350 332 267 242 258 270 276 276 254 213 200 216 232 234 238 236 232 233 233 238 237 237
162 145 133 111 104 126 131 147 178 174 183 211 236 25 150 140 67 293 3 34 357 280 10 265 179 105 66 337 353 2 25 6 358 10 12 1 348 11 354 17 47 39 15 278 303 350 62 77 85 235 223 218 206 179 136 101 111 130 171 232 281 255 267 287 283 283 1 9 282 270 283 274 268 270 256 183 188 217 223 223 232 232 232 234 234 239 239 242
161 149 130 91 81 88 96 110 174 219 236 242 227 115 119 137 121 141 129 84 319 342 4 316 47 6 334 69 15 21 66 31 342 356 6 2 13 51 357 41 73 66 348 349 350 10 43 82 253 253 180 124 93 107 90 92 102 86 136 186 311 279 283 302 293 282 9 360 299 315 305 283 271 265 248 185 197 223 220 220 231 230 231 235 233 237 241 246
169 161 143 84 68 64 69 83 80 267 231 203 147 112 104 107 113 103 83 97 312 332 359 359 52 2 355 47 23 30 65 49 319 333 353 1 23 80 91 66 71 56 3 18 130 101 52 232 241 224 135 139 84 38 52 59 72 93 156 165 294 296 348 296 298 328 313 259 271 303 302 289 295 299 273 213 213 247 248 234 242 234 232 237 236 238 236 239
179 176 166 92 56 52 58 78 81 81 110 124 113 107 109 106 105 88 68 83 341 298 320 317 163 81 46 37 12 35 90 69 221 318 346 11 83 62 92 114 81 57 5 26 96 109 106 202 152 71 78 136 114 18 50 53 356 286 202 193 258 273 225 240 286 325 317 282 241 296 306 294 328 344 299 283 238 261 263 254 256 243 237 245 251 247 237 236
187 188 186 165 39 34 37 61 88 98 105 106 106 110 116 112 94 72 73 69 327 301 316 263 221 94 112 41 5 39 125 31 210 295 341 22 96 30 80 124 91 115 232 34 79 94 105 209 142 75 41 71 108 37 90 105 341 303 230 205 230 268 258 259 305 335 346 339 290 5 352 295 313 307 275 319 329 267 250 247 255 251 242 242 246 247 241 238
190 194 199 213 262 359 348 311 100 112 107 99 118 125 126 129 65 61 76 65 305 281 319 233 284 38 43 1 357 65 95 339 289 340 357 13 14 101 86 357 56 148 207 172 93 117 124 12 68 109 78 60 78 38 210 141 81 308 239 196 212 261 271 271 289 329 346 286 294 55 99 268 303 291 272 325 308 277 271 252 254 255 246 236 238 244 242 239
188 194 204 217 232 314 305 190 138 127 106 123 153 143 137 144 63 55 66 41 315 243 71 267 317 55 37 334 359 99 109 300 320 23 16 11 341 83 85 312 51 106 189 137 35 357 168 25 35 73 75 70 69 349 220 151 106 269 219 118 298 291 274 248 206 188 228 278 321 22 128 240 293 278 283 339 304 288 284 264 258 252 245 240 239 242 240 238
187 196 205 218 237 279 280 148 137 128 93 156 174 167 161 137 48 45 83 70 292 146 79 292 357 51 355 10 43 79 245 308 39 334 358 31 15 46 82 181 160 123 43 104 312 290 140 202 264 109 61 60 150 236 199 157 168 260 245 311 302 293 241 183 151 177 270 357 327 320 94 188 275 271 330 4 310 292 281 267 262 254 245 241 240 241 240 239
195 206 215 233 251 263 253 181 124 114 97 160 177 182 187 66 38 53 82 178 282 54 74 338 50 342 343 21 26 27 5 3 68 301 342 39 34 46 88 168 133 119 33 70 164 222 104 232 209 151 118 234 240 231 182 164 220 276 300 304 323 55 77 105 118 149 41 20 270 261 100 93 277 280 318 13 280 267 266 263 261 257 253 246 242 243 242 241
217 224 233 240 245 247 236 244 97 136 136 173 179 183 125 38 57 64 44 244 264 4 238 6 300 322 23 38 354 7 36 352 326 331 353 30 13 32 92 160 101 107 23 33 100 218 331 284 196 134 173 208 237 254 181 180 246 315 349 337 12 42 48 61 77 95 58 335 259 246 205 100 301 284 261 220 222 226 244 268 269 264 261 252 244 242 241 239
227 232 237 231 228 240 255 20 22 195 190 174 173 160 52 34 67 95 227 239 191 316 340 32 330 19 47 79 335 1 25 342 332 4 18 6 360 14 45 58 60 63 9 8 30 319 338 344 252 276 237 156 46 332 213 195 299 1 20 349 357 355 19 23 350 44 64 280 260 245 257 109 218 266 250 234 244 227 224 256 268 266 262 255 245 240 238 237
213 226 236 228 225 246 49 42 118 179 175 165 153 90 68 52 341 172 254 295 359 300 16 52 325 40 49 66 46 345 338 348 4 49 54 22 25 15 24 161 158 34 353 294 331 332 304 250 282 317 265 150 90 344 329 346 6 34 44 35 26 352 1 3 329 3 224 253 220 187 290 236 227 253 259 261 265 250 228 234 250 259 260 256 247 241 240 236
95 84 290 279 278 60 90 101 163 159 163 155 122 57 75 90 243 220 258 325 6 313 44 64 5 85 68 23 11 322 309 320 359 45 101 107 64 35 297 213 166 70 340 226 317 348 324 294 307 334 270 162 125 141 309 319 3 28 64 86 78 44 10 318 293 321 282 273 247 194 280 286 271 268 245 244 257 251 235 233 239 250 255 255 252 247 250 244
54 52 49 55 64 79 115 147 157 153 154 138 93 61 87 154 237 215 254 264 267 352 28 65 29 44 64 83 276 292 340 283 331 32 14 22 56 33 291 308 27 107 98 99 147 73 10 301 267 173 213 105 139 183 175 144 55 27 162 129 116 136 134 260 248 265 288 297 296 284 246 218 254 278 230 225 253 259 251 248 249 256 254 257 267 265 259 248
54 56 61 67 73 88 122 147 154 153 151 115 67 78 142 230 247 202 237 246 229 13 1 39 65 50 6 316 301 305 166 268 342 48 11 9 166 184 209 263 287 110 116 94 270 149 114 272 264 35 59 119 156 210 134 106 67 356 159 111 122 172 154 192 208 200 264 321 298 261 237 213 231 280 276 277 287 275 266 261 261 264 259 255 265 261 252 247
60 59 60 64 73 96 126 149 152 152 139 91 64 100 199 230 233 181 205 195 135 149 141 11 61 73 317 304 331 11 141 250 340 35 326 270 206 192 192 228 197 129 143 158 220 146 60 282 293 14 26 86 159 208 102 63 99 95 103 190 225 167 122 114 273 320 65 354 279 247 266 281 310 293 295 342 320 291 288 276 260 261 265 258 256 256 250 246
50 56 54 52 61 109 143 155 157 156 105 84 101 213 221 222 188 183 193 83 136 129 116 176 259 177 249 277 296 311 324 283 318 350 253 266 229 188 181 234 185 157 175 163 201 183 147 283 300 43 75 334 314 170 55 34 124 114 177 220 206 94 90 96 322 344 37 262 269 304 274 291 332 305 308 337 303 283 282 278 271 269 268 257 253 254 251 246
66 70 55 41 48 130 163 166 166 145 84 79 191 244 217 199 228 175 173 167 142 87 96 191 235 214 200 224 272 257 186 256 303 340 220 255 256 176 151 190 167 133 159 124 112 175 118 284 302 8 178 311 355 60 11 360 75 108 198 196 90 117 274 42 114 323 357 292 287 304 285 276 238 238 282 294 275 275 281 281 279 272 260 252 254 257 256 253
91 74 32 25 43 79 182 195 169 87 73 101 230 253 213 210 282 247 206 255 125 102 127 215 257 41 176 180 220 230 198 213 224 295 211 217 259 193 143 174 161 114 90 100 127 218 97 148 284 317 287 310 2 81 234 287 53 49 3 351 37 160 185 174 158 164 189 274 289 313 330 281 236 214 228 264 272 278 281 280 273 264 257 254 256 257 257 252
82 65 331 354 50 36 157 158 65 61 79 186 205 213 270 267 266 283 309 330 146 138 186 196 158 129 212 205 211 210 204 205 183 183 223 227 259 239 176 149 147 137 73 62 104 174 73 137 251 306 329 301 263 209 196 178 149 114 153 246 304 165 146 236 271 136 146 190 244 292 307 271 258 216 210 254 272 272 264 264 266 265 263 262 258 256 257 250
78 58 289 335 58 329 79 71 44 65 126 188 193 198 270 183 178 318 337 15 109 242 170 156 157 178 190 203 234 207 170 204 194 192 236 237 232 250 325 92 146 150 111 76 97 222 118 161 218 293 306 244 234 239 194 180 167 156 180 197 189 151 118 49 294 283 125 163 192 211 290 274 268 195 201 246 261 263 255 248 260 271 270 269 266 256 252 248
83 150 276 12 27 245 78 67 3 73 119 165 206 218 255 115 115 345 326 20 56 33 70 105 149 171 170 178 206 186 160 196 206 198 232 226 205 235 338 36 108 126 112 135 233 231 144 113 165 265 263 243 248 285 174 182 148 136 180 185 151 136 127 146 237 251 226 200 184 121 260 269 266 175 193 239 243 255 257 240 254 273 273 272 274 265 255 250
114 196 301 32 329 113 81 55 307 18 46 246 252 284 284 119 113 98 296 332 37 68 22 358 190 191 215 186 150 175 192 205 190 190 227 235 220 259 349 25 64 102 91 132 236 226 122 88 15 272 285 306 318 356 9 31 93 130 230 151 145 162 140 156 181 186 207 209 175 102 254 267 276 191 194 240 256 270 271 255 253 267 275 274 272 270 262 253
153 198 61 17 327 187 121 193 227 305 285 287 27 339 270 137 135 142 206 253 223 146 127 251 206 190 228 115 110 187 208 214 208 214 224 209 229 4 17 16 27 106 109 190 198 213 238 173 82 325 320 332 348 357 344 343 75 213 246 188 168 122 96 111 150 111 268 217 176 177 252 260 276 317 275 279 294 287 278 268 254 254 269 275 275 274 267 259
112 249 296 345 19 84 143 186 152 148 216 89 58 247 240 35 152 172 183 202 191 164 159 284 234 130 90 88 75 206 212 245 261 307 10 235 268 342 13 5 18 85 247 232 195 256 240 197 148 206 290 296 307 313 308 282 242 233 212 196 202 157 142 166 146 128 245 226 166 187 250 265 284 299 298 300 304 299 295 293 283 265 263 270 275 278 273 267
120 31 300 329 20 62 74 114 111 121 160 155 16 290 136 95 298 284 153 168 169 146 138 314 159 103 66 99 137 270 262 284 340 340 312 252 270 310 344 5 23 271 223 63 46 64 99 230 217 202 211 236 260 264 206 74 294 278 257 206 206 203 176 142 111 180 207 178 186 231 250 274 288 289 291 297 300 297 298 300 299 293 286 282 280 280 279 273
128 164 165 296 349 40 38 19 66 89 160 179 183 224 174 210 304 335 152 208 162 127 133 101 153 169 183 174 192 250 251 295 18 250 227 229 258 298 295 90 44 311 284 61 23 84 95 292 245 208 228 249 262 271 309 4 284 271 271 235 204 204 177 167 209 218 148 110 258 254 243 260 277 279 285 291 293 295 297 297 299 300 298 296 292 289 285 278
142 181 150 142 223 159 54 24 93 92 92 150 142 155 169 191 237 208 203 324 11 202 184 273 241 211 193 176 164 203 254 298 261 241 217 235 283 342 341 320 37 345 17 41 355 100 126 262 245 194 251 268 273 279 284 276 261 262 271 257 223 202 186 201 227 223 150 193 258 268 267 262 272 281 286 287 289 294 297 297 299 299 297 296 294 292 289 284
87 126 311 12 137 173 153 43 108 104 92 96 105 163 169 183 224 233 195 76 355 285 203 234 260 237 199 179 151 174 220 224 275 264 203 174 216 89 320 257 197 1 25 84 347 112 151 248 251 169 284 280 275 279 274 258 265 275 269 254 227 209 207 217 235 231 199 235 258 270 277 276 276 279 281 284 289 292 294 296 297 297 298 297 293 292 290 288
157 164 187 47 60 107 50 35 95 104 78 46 200 224 170 176 213 243 179 150 196 257 191 219 254 245 192 178 165 200 217 184 230 265 180 152 245 203 214 222 152 43 18 122 352 301 196 264 248 107 312 281 276 297 297 264 267 281 279 271 242 215 222 233 245 242 227 247 259 269 279 279 273 271 273 279 287 293 296 298 298 299 302 302 299 298 297 294
168 150 147 109 78 349 353 20 98 115 113 275 206 217 199 197 209 207 183 175 160 173 189 198 216 131 105 169 204 238 238 185 195 233 191 183 231 212 213 211 144 134 166 163 104 144 177 272 355 58 344 280 282 352 320 295 285 276 282 286 264 199 215 237 235 209 205 238 264 279 282 274 273 279 283 281 287 297 299 301 304 306 309 309 305 303 301 298
138 76 101 105 86 314 336 48 54 112 219 235 197 190 208 242 224 191 184 337 72 114 192 187 162 115 93 199 228 244 243 205 214 232 201 182 175 129 159 149 124 133 162 161 153 168 150 167 359 54 313 274 297 334 311 314 324 293 277 274 218 190 228 260 258 214 204 214 259 271 263 274 289 303 304 302 306 309 307 308 307 306 309 311 306 302 299 298